Time,TemperatureF,DewpointF,PressureIn,WindDirection,WindDirectionDegrees,WindSpeedMPH,WindSpeedGustMPH,Humidity,HourlyPrecipIn,Conditions,Clouds,dailyrainin,SoftwareType,DateUTC
2013-06-17 00:03:00,52.2,22.5,29.41,SSW,198,0.0,0.0,31,0.00,,SKC,0.00,VWS V14.01,2013-06-17 07:03:00,
2013-06-17 00:08:00,52.2,22.5,29.41,SSW,197,0.0,0.0,31,0.00,,SKC,0.00,VWS V14.01,2013-06-17 07:08:00,
2013-06-17 00:13:00,52.0,22.3,29.41,SSW,197,0.0,0.0,31,0.00,,SKC,0.00,VWS V14.01,2013-06-17 07:13:00,
2013-06-17 00:18:00,52.0,22.3,29.41,SSW,197,0.0,0.0,31,0.00,,SKC,0.00,VWS V14.01,2013-06-17 07:18:00,
2013-06-17 00:23:00,51.8,22.9,29.41,SSW,197,0.0,0.0,32,0.00,,SKC,0.00,VWS V14.01,2013-06-17 07:23:00,
2013-06-17 00:28:00,51.6,22.7,29.41,SSW,197,0.0,0.0,32,0.00,,SKC,0.00,VWS V14.01,2013-06-17 07:28:00,
2013-06-17 00:33:00,51.1,23.0,29.41,SSW,197,0.0,0.0,33,0.00,,SKC,0.00,VWS V14.01,2013-06-17 07:33:00,
2013-06-17 00:38:00,51.1,22.3,29.39,SSW,198,0.0,0.0,32,0.00,,SKC,0.00,VWS V14.01,2013-06-17 07:38:00,
2013-06-17 00:43:00,51.4,21.1,29.39,SW,231,3.6,5.4,30,0.00,,SKC,0.00,VWS V14.01,2013-06-17 07:43:00,
2013-06-17 00:48:00,52.7,20.5,29.39,SSW,213,0.0,0.0,28,0.00,,SKC,0.00,VWS V14.01,2013-06-17 07:48:00,
2013-06-17 00:53:00,53.1,20.8,29.39,SSW,213,0.0,0.0,28,0.00,,SKC,0.00,VWS V14.01,2013-06-17 07:53:00,
2013-06-17 00:58:00,53.8,20.6,29.39,NE,43,0.0,0.0,27,0.00,,SKC,0.00,VWS V14.01,2013-06-17 07:58:00,
2013-06-17 01:03:00,53.2,21.0,29.39,NE,42,0.0,0.0,28,0.00,,SKC,0.00,VWS V14.01,2013-06-17 08:03:00,
2013-06-17 01:08:00,52.7,20.5,29.41,ESE,122,0.0,0.0,28,0.00,,SKC,0.00,VWS V14.01,2013-06-17 08:08:00,
2013-06-17 01:13:00,52.2,20.9,29.41,ESE,106,0.0,0.0,29,0.00,,SKC,0.00,VWS V14.01,2013-06-17 08:13:00,
2013-06-17 01:18:00,51.6,20.4,29.41,East,83,0.0,0.0,29,0.00,,SKC,0.00,VWS V14.01,2013-06-17 08:18:00,
2013-06-17 01:23:00,51.3,20.9,29.41,NNW,345,0.0,0.0,30,0.00,,SKC,0.00,VWS V14.01,2013-06-17 08:23:00,
2013-06-17 01:28:00,50.7,21.2,29.41,NNW,345,0.0,0.0,31,0.00,,SKC,0.00,VWS V14.01,2013-06-17 08:28:00,
2013-06-17 01:33:00,50.4,21.6,29.41,NNW,345,0.0,0.0,32,0.00,,SKC,0.00,VWS V14.01,2013-06-17 08:33:00,
2013-06-17 01:38:00,50.2,23.6,29.39,NNW,345,0.0,0.0,35,0.00,,SKC,0.00,VWS V14.01,2013-06-17 08:38:00,
2013-06-17 01:43:00,50.2,22.9,29.39,North,6,0.0,0.0,34,0.00,,SKC,0.00,VWS V14.01,2013-06-17 08:43:00,
2013-06-17 01:48:00,50.2,22.2,29.39,North,6,0.0,0.0,33,0.00,,SKC,0.00,VWS V14.01,2013-06-17 08:48:00,
2013-06-17 01:53:00,50.2,21.5,29.39,North,6,0.0,0.0,32,0.00,,SKC,0.00,VWS V14.01,2013-06-17 08:53:00,
2013-06-17 01:58:00,49.6,21.0,29.39,North,6,0.0,0.0,32,0.00,,SKC,0.00,VWS V14.01,2013-06-17 08:58:00,
2013-06-17 02:03:00,50.0,21.3,29.39,North,8,0.0,0.0,32,0.00,,SKC,0.00,VWS V14.01,2013-06-17 09:03:00,
2013-06-17 02:08:00,50.5,20.3,29.39,NNE,17,0.0,0.0,30,0.00,,SKC,0.00,VWS V14.01,2013-06-17 09:08:00,
2013-06-17 02:13:00,51.1,20.0,29.39,East,91,0.0,0.0,29,0.00,,SKC,0.00,VWS V14.01,2013-06-17 09:13:00,
2013-06-17 02:18:00,51.6,19.6,29.39,SE,133,0.0,0.0,28,0.00,,SKC,0.00,VWS V14.01,2013-06-17 09:18:00,
2013-06-17 02:23:00,52.0,19.9,29.39,SE,133,0.0,0.0,28,0.00,,SKC,0.00,VWS V14.01,2013-06-17 09:23:00,
2013-06-17 02:28:00,52.0,19.1,29.39,SE,124,2.7,3.1,27,0.00,,SKC,0.00,VWS V14.01,2013-06-17 09:28:00,
2013-06-17 02:33:00,52.2,19.2,29.39,SE,128,3.6,5.4,27,0.00,,SKC,0.00,VWS V14.01,2013-06-17 09:33:00,
2013-06-17 02:38:00,52.7,19.7,29.39,SE,131,4.0,5.4,27,0.00,,SKC,0.00,VWS V14.01,2013-06-17 09:38:00,
2013-06-17 02:43:00,53.1,19.1,29.39,SE,146,3.6,4.9,26,0.00,,SKC,0.00,VWS V14.01,2013-06-17 09:43:00,
2013-06-17 02:48:00,53.1,19.1,29.39,SE,137,3.6,3.6,26,0.00,,SKC,0.00,VWS V14.01,2013-06-17 09:48:00,
2013-06-17 02:53:00,52.7,18.8,29.39,SE,136,0.0,0.0,26,0.00,,SKC,0.00,VWS V14.01,2013-06-17 09:53:00,
2013-06-17 02:58:00,51.6,18.8,29.39,SE,134,0.0,0.0,27,0.00,,SKC,0.00,VWS V14.01,2013-06-17 09:58:00,
2013-06-17 03:03:00,50.9,18.1,29.39,SE,130,4.0,4.0,27,0.00,,SKC,0.00,VWS V14.01,2013-06-17 10:03:00,
2013-06-17 03:08:00,51.1,18.3,29.39,SE,124,3.1,3.1,27,0.00,,SKC,0.00,VWS V14.01,2013-06-17 10:08:00,
2013-06-17 03:13:00,51.3,18.4,29.39,ESE,117,0.0,0.0,27,0.00,,SKC,0.00,VWS V14.01,2013-06-17 10:13:00,
2013-06-17 03:18:00,51.4,18.6,29.39,ESE,115,3.1,4.0,27,0.00,,SKC,0.00,VWS V14.01,2013-06-17 10:18:00,
2013-06-17 03:23:00,51.4,17.7,29.39,ESE,103,2.2,2.7,26,0.00,,SKC,0.00,VWS V14.01,2013-06-17 10:23:00,
2013-06-17 03:28:00,51.4,18.6,29.39,SE,125,3.6,3.6,27,0.00,,SKC,0.00,VWS V14.01,2013-06-17 10:28:00,
2013-06-17 03:33:00,51.3,18.4,29.39,ESE,121,0.0,0.0,27,0.00,,SKC,0.00,VWS V14.01,2013-06-17 10:33:00,
2013-06-17 03:38:00,51.3,18.4,29.39,ESE,115,2.7,3.6,27,0.00,,SKC,0.00,VWS V14.01,2013-06-17 10:38:00,
2013-06-17 03:43:00,51.8,18.0,29.39,SE,136,4.0,4.0,26,0.00,,SKC,0.00,VWS V14.01,2013-06-17 10:43:00,
2013-06-17 03:48:00,52.2,18.3,29.39,SE,128,4.0,4.0,26,0.00,,SKC,0.00,VWS V14.01,2013-06-17 10:48:00,
2013-06-17 03:53:00,52.0,18.2,29.39,SE,127,2.7,2.7,26,0.00,,SKC,0.00,VWS V14.01,2013-06-17 10:53:00,
2013-06-17 03:58:00,51.1,17.4,29.39,SE,125,3.1,3.1,26,0.00,,SKC,0.00,VWS V14.01,2013-06-17 10:58:00,
2013-06-17 04:03:00,50.4,16.8,29.39,SE,130,2.2,3.1,26,0.00,,SKC,0.00,VWS V14.01,2013-06-17 11:03:00,
2013-06-17 04:08:00,50.0,17.4,29.39,SE,134,4.0,4.0,27,0.00,,SKC,0.00,VWS V14.01,2013-06-17 11:08:00,
2013-06-17 04:13:00,50.0,17.4,29.39,SSE,160,4.0,4.0,27,0.00,,SKC,0.00,VWS V14.01,2013-06-17 11:13:00,
2013-06-17 04:18:00,50.4,16.8,29.39,ESE,122,2.7,2.7,26,0.00,,SKC,0.00,VWS V14.01,2013-06-17 11:18:00,
2013-06-17 04:23:00,50.2,17.5,29.39,SE,125,2.7,3.1,27,0.00,,SKC,0.00,VWS V14.01,2013-06-17 11:23:00,
2013-06-17 04:28:00,50.2,17.5,29.39,SE,138,4.0,4.0,27,0.00,,SKC,0.00,VWS V14.01,2013-06-17 11:28:00,
2013-06-17 04:33:00,50.2,17.5,29.39,SE,131,4.0,4.0,27,0.00,,SKC,0.00,VWS V14.01,2013-06-17 11:33:00,
2013-06-17 04:38:00,50.0,17.4,29.36,SE,133,4.0,4.0,27,0.00,,SKC,0.00,VWS V14.01,2013-06-17 11:38:00,
2013-06-17 04:43:00,49.5,16.9,29.36,ESE,118,0.0,0.0,27,0.00,,SKC,0.00,VWS V14.01,2013-06-17 11:43:00,
2013-06-17 04:48:00,49.1,16.6,29.36,ESE,116,0.0,0.0,27,0.00,,SKC,0.00,VWS V14.01,2013-06-17 11:48:00,
2013-06-17 04:53:00,49.1,16.6,29.36,ESE,114,2.7,2.7,27,0.00,,SKC,0.00,VWS V14.01,2013-06-17 11:53:00,
2013-06-17 04:58:00,49.3,16.7,29.36,SE,142,4.5,5.4,27,0.00,,SKC,0.00,VWS V14.01,2013-06-17 11:58:00,
2013-06-17 05:03:00,49.1,16.6,29.36,SE,139,2.7,2.7,27,0.00,,SKC,0.00,VWS V14.01,2013-06-17 12:03:00,
2013-06-17 05:08:00,48.6,16.1,29.36,ESE,120,3.1,3.6,27,0.00,,SKC,0.00,VWS V14.01,2013-06-17 12:08:00,
2013-06-17 05:13:00,48.6,16.1,29.36,SE,126,5.4,5.4,27,0.00,,SKC,0.00,VWS V14.01,2013-06-17 12:13:00,
2013-06-17 05:18:00,49.1,16.6,29.36,ESE,123,3.1,3.6,27,0.00,,SKC,0.00,VWS V14.01,2013-06-17 12:18:00,
2013-06-17 05:23:00,49.1,16.6,29.39,ESE,111,5.4,5.4,27,0.00,,SKC,0.00,VWS V14.01,2013-06-17 12:23:00,
2013-06-17 05:28:00,49.1,16.6,29.39,ESE,123,3.6,3.6,27,0.00,,SKC,0.00,VWS V14.01,2013-06-17 12:28:00,
2013-06-17 05:33:00,49.3,16.7,29.39,ESE,119,3.6,3.6,27,0.00,,SKC,0.00,VWS V14.01,2013-06-17 12:33:00,
2013-06-17 05:38:00,49.5,16.9,29.39,ESE,106,2.7,3.1,27,0.00,,SKC,0.00,VWS V14.01,2013-06-17 12:38:00,
2013-06-17 05:43:00,49.3,16.7,29.39,ESE,113,2.7,3.1,27,0.00,,SKC,0.00,VWS V14.01,2013-06-17 12:43:00,
2013-06-17 05:48:00,49.3,16.7,29.39,ESE,118,5.8,5.8,27,0.00,,SKC,0.00,VWS V14.01,2013-06-17 12:48:00,
2013-06-17 05:53:00,49.1,16.6,29.39,SE,139,2.7,2.7,27,0.00,,SKC,0.00,VWS V14.01,2013-06-17 12:53:00,
2013-06-17 05:58:00,48.9,16.4,29.39,ESE,122,0.0,0.0,27,0.00,,SKC,0.00,VWS V14.01,2013-06-17 12:58:00,
2013-06-17 06:03:00,48.9,16.4,29.39,ESE,121,2.7,3.1,27,0.00,,SKC,0.00,VWS V14.01,2013-06-17 13:03:00,
2013-06-17 06:08:00,48.9,16.4,29.36,SE,130,2.7,2.7,27,0.00,,SKC,0.00,VWS V14.01,2013-06-17 13:08:00,
2013-06-17 06:13:00,48.9,16.4,29.36,SE,127,3.6,3.6,27,0.00,,SKC,0.00,VWS V14.01,2013-06-17 13:13:00,
2013-06-17 06:18:00,48.9,16.4,29.36,SE,131,3.6,3.6,27,0.00,,SKC,0.00,VWS V14.01,2013-06-17 13:18:00,
2013-06-17 06:23:00,49.3,16.7,29.36,SE,142,0.0,0.0,27,0.00,,SKC,0.00,VWS V14.01,2013-06-17 13:23:00,
2013-06-17 06:28:00,49.3,16.7,29.36,SE,133,3.1,3.1,27,0.00,,SKC,0.00,VWS V14.01,2013-06-17 13:28:00,
2013-06-17 06:33:00,50.2,16.6,29.36,ESE,119,4.9,4.9,26,0.00,,SKC,0.00,VWS V14.01,2013-06-17 13:33:00,
2013-06-17 06:38:00,51.6,17.9,29.39,SE,126,0.0,0.0,26,0.00,,SKC,0.00,VWS V14.01,2013-06-17 13:38:00,
2013-06-17 06:43:00,53.1,19.1,29.39,SE,126,0.0,0.0,26,0.00,,SKC,0.00,VWS V14.01,2013-06-17 13:43:00,
2013-06-17 06:48:00,54.0,19.0,29.39,SE,127,4.0,4.0,25,0.00,,SKC,0.00,VWS V14.01,2013-06-17 13:48:00,
2013-06-17 06:53:00,54.5,19.4,29.39,South,177,3.6,3.6,25,0.00,,SKC,0.00,VWS V14.01,2013-06-17 13:53:00,
2013-06-17 06:58:00,54.9,20.6,29.39,South,169,4.0,4.0,26,0.00,,SKC,0.00,VWS V14.01,2013-06-17 13:58:00,
2013-06-17 07:03:00,55.0,20.8,29.39,South,173,4.0,5.4,26,0.00,,SKC,0.00,VWS V14.01,2013-06-17 14:03:00,
2013-06-17 07:08:00,55.9,20.6,29.39,SSW,195,0.0,0.0,25,0.00,,SKC,0.00,VWS V14.01,2013-06-17 14:08:00,
2013-06-17 07:13:00,57.2,21.7,29.39,SSW,195,0.0,0.0,25,0.00,,SKC,0.00,VWS V14.01,2013-06-17 14:13:00,
2013-06-17 07:18:00,58.5,22.8,29.39,SSW,195,0.0,0.0,25,0.00,,SKC,0.00,VWS V14.01,2013-06-17 14:18:00,
2013-06-17 07:23:00,58.3,22.6,29.39,SSW,195,0.0,0.0,25,0.00,,SKC,0.00,VWS V14.01,2013-06-17 14:23:00,
2013-06-17 07:28:00,59.2,23.4,29.39,SSW,195,0.0,0.0,25,0.00,,SKC,0.00,VWS V14.01,2013-06-17 14:28:00,
2013-06-17 07:33:00,59.7,23.9,29.39,SSW,209,0.0,0.0,25,0.00,,SKC,0.00,VWS V14.01,2013-06-17 14:33:00,
2013-06-17 07:38:00,60.3,23.4,29.39,SSW,209,0.0,0.0,24,0.00,,SKC,0.00,VWS V14.01,2013-06-17 14:38:00,
2013-06-17 07:43:00,60.6,24.6,29.39,West,280,2.2,3.1,25,0.00,,SKC,0.00,VWS V14.01,2013-06-17 14:43:00,
2013-06-17 07:48:00,61.0,24.9,29.39,West,280,0.0,2.2,25,0.00,,SKC,0.00,VWS V14.01,2013-06-17 14:48:00,
2013-06-17 07:53:00,61.3,25.2,29.39,WNW,296,3.1,3.6,25,0.00,,SKC,0.00,VWS V14.01,2013-06-17 14:53:00,
2013-06-17 07:58:00,61.0,24.0,29.39,WNW,283,0.0,2.7,24,0.00,,SKC,0.00,VWS V14.01,2013-06-17 14:58:00,
2013-06-17 08:03:00,61.0,24.0,29.39,WNW,283,0.0,0.0,24,0.00,,SKC,0.00,VWS V14.01,2013-06-17 15:03:00,
2013-06-17 08:08:00,61.5,24.4,29.39,WNW,283,0.0,0.0,24,0.00,,SKC,0.00,VWS V14.01,2013-06-17 15:08:00,
2013-06-17 08:13:00,62.6,24.3,29.39,WNW,283,0.0,0.0,23,0.00,,SKC,0.00,VWS V14.01,2013-06-17 15:13:00,
2013-06-17 08:18:00,63.3,25.9,29.39,WNW,283,0.0,0.0,24,0.00,,SKC,0.00,VWS V14.01,2013-06-17 15:18:00,
2013-06-17 08:23:00,64.4,25.8,29.36,WNW,292,0.0,0.0,23,0.00,,SKC,0.00,VWS V14.01,2013-06-17 15:23:00,
2013-06-17 08:28:00,64.6,26.0,29.36,WNW,291,0.0,0.0,23,0.00,,SKC,0.00,VWS V14.01,2013-06-17 15:28:00,
2013-06-17 08:33:00,64.8,26.1,29.36,WNW,291,0.0,0.0,23,0.00,,SKC,0.00,VWS V14.01,2013-06-17 15:33:00,
2013-06-17 08:38:00,65.7,23.5,29.39,WNW,292,0.0,0.0,20,0.00,,SKC,0.00,VWS V14.01,2013-06-17 15:38:00,
2013-06-17 08:43:00,66.2,24.0,29.39,WNW,292,0.0,0.0,20,0.00,,SKC,0.00,VWS V14.01,2013-06-17 15:43:00,
2013-06-17 08:48:00,66.4,24.1,29.39,WNW,292,0.0,0.0,20,0.00,,SKC,0.00,VWS V14.01,2013-06-17 15:48:00,
2013-06-17 08:53:00,67.3,24.9,29.39,WNW,292,0.0,0.0,20,0.00,,SKC,0.00,VWS V14.01,2013-06-17 15:53:00,
2013-06-17 08:58:00,67.6,27.5,29.39,West,280,2.7,2.7,22,0.00,,SKC,0.00,VWS V14.01,2013-06-17 15:58:00,
2013-06-17 09:03:00,68.2,27.9,29.39,West,278,2.7,3.1,22,0.00,,SKC,0.00,VWS V14.01,2013-06-17 16:03:00,
2013-06-17 09:08:00,68.5,28.2,29.36,West,280,3.1,3.1,22,0.00,,SKC,0.00,VWS V14.01,2013-06-17 16:08:00,
2013-06-17 09:13:00,68.5,28.2,29.36,West,275,0.0,3.6,22,0.00,,SKC,0.00,VWS V14.01,2013-06-17 16:13:00,
2013-06-17 09:18:00,68.4,28.1,29.36,NW,313,0.0,0.0,22,0.00,,SKC,0.00,VWS V14.01,2013-06-17 16:18:00,
2013-06-17 09:23:00,69.3,26.5,29.39,West,278,4.0,4.0,20,0.00,,SKC,0.00,VWS V14.01,2013-06-17 16:23:00,
2013-06-17 09:28:00,69.3,26.5,29.39,West,277,5.4,5.4,20,0.00,,SKC,0.00,VWS V14.01,2013-06-17 16:28:00,
2013-06-17 09:33:00,68.9,26.2,29.39,WNW,283,3.1,5.8,20,0.00,,SKC,0.00,VWS V14.01,2013-06-17 16:33:00,
2013-06-17 09:38:00,69.8,25.7,29.36,WNW,297,3.1,4.9,19,0.00,,SKC,0.00,VWS V14.01,2013-06-17 16:38:00,
2013-06-17 09:43:00,70.2,26.0,29.36,WNW,295,3.6,4.0,19,0.00,,SKC,0.00,VWS V14.01,2013-06-17 16:43:00,
2013-06-17 09:48:00,70.7,26.5,29.36,West,279,4.0,4.9,19,0.00,,SKC,0.00,VWS V14.01,2013-06-17 16:48:00,
2013-06-17 09:53:00,71.1,24.1,29.36,NW,307,0.0,4.0,17,0.00,,SKC,0.00,VWS V14.01,2013-06-17 16:53:00,
2013-06-17 09:58:00,71.6,23.1,29.36,NW,307,0.0,0.0,16,0.00,,SKC,0.00,VWS V14.01,2013-06-17 16:58:00,
2013-06-17 10:03:00,72.5,23.8,29.36,NW,307,0.0,0.0,16,0.00,,SKC,0.00,VWS V14.01,2013-06-17 17:03:00,
2013-06-17 10:08:00,72.5,23.8,29.36,WNW,288,0.0,0.0,16,0.00,,SKC,0.00,VWS V14.01,2013-06-17 17:08:00,
2013-06-17 10:13:00,73.2,24.4,29.36,WNW,302,4.0,4.0,16,0.00,,SKC,0.00,VWS V14.01,2013-06-17 17:13:00,
2013-06-17 10:18:00,73.4,24.5,29.36,WNW,286,3.6,4.0,16,0.00,,SKC,0.00,VWS V14.01,2013-06-17 17:18:00,
2013-06-17 10:23:00,73.9,25.0,29.36,WNW,286,2.7,4.0,16,0.00,,SKC,0.00,VWS V14.01,2013-06-17 17:23:00,
2013-06-17 10:28:00,74.3,25.2,29.36,WNW,295,0.0,0.0,16,0.00,,SKC,0.00,VWS V14.01,2013-06-17 17:28:00,
2013-06-17 10:33:00,74.5,25.4,29.36,NW,316,0.0,2.7,16,0.00,,SKC,0.00,VWS V14.01,2013-06-17 17:33:00,
2013-06-17 10:49:00,76.5,25.4,29.36,WNW,293,0.0,0.0,15,0.00,,SKC,0.00,VWS V14.01,2013-06-17 17:49:00,
2013-06-17 10:54:00,77.4,26.1,29.36,ESE,109,0.0,0.0,15,0.00,,SKC,0.00,VWS V14.01,2013-06-17 17:54:00,
2013-06-17 10:59:00,77.7,26.4,29.36,NNW,327,3.1,4.0,15,0.00,,SKC,0.00,VWS V14.01,2013-06-17 17:59:00,
2013-06-17 11:04:00,77.9,26.6,29.36,NW,314,5.4,5.4,15,0.00,,SKC,0.00,VWS V14.01,2013-06-17 18:04:00,
2013-06-17 11:09:00,77.5,26.3,29.33,NNW,336,5.8,5.8,15,0.00,,SKC,0.00,VWS V14.01,2013-06-17 18:09:00,
2013-06-17 11:14:00,77.7,26.4,29.33,NNW,343,0.0,3.6,15,0.00,,SKC,0.00,VWS V14.01,2013-06-17 18:14:00,
2013-06-17 11:19:00,78.3,26.9,29.33,North,353,7.6,7.6,15,0.00,,SKC,0.00,VWS V14.01,2013-06-17 18:19:00,
2013-06-17 11:24:00,79.2,27.6,29.36,NNW,328,3.6,5.8,15,0.00,,SKC,0.00,VWS V14.01,2013-06-17 18:24:00,
2013-06-17 11:29:00,79.3,27.7,29.36,North,349,8.7,8.7,15,0.00,,SKC,0.00,VWS V14.01,2013-06-17 18:29:00,
2013-06-17 11:34:00,79.0,27.4,29.36,NW,305,5.8,8.3,15,0.00,,SKC,0.00,VWS V14.01,2013-06-17 18:34:00,
2013-06-17 11:38:00,79.2,27.6,29.33,North,353,9.2,9.2,15,0.00,,SKC,0.00,VWS V14.01,2013-06-17 18:38:00,
2013-06-17 11:43:00,79.0,27.4,29.33,NNW,334,5.8,5.8,15,0.00,,SKC,0.00,VWS V14.01,2013-06-17 18:43:00,
2013-06-17 11:48:00,79.5,27.9,29.33,NW,306,5.4,5.4,15,0.00,,SKC,0.00,VWS V14.01,2013-06-17 18:48:00,
2013-06-17 11:53:00,80.1,28.3,29.33,WNW,286,4.5,6.3,15,0.00,,SKC,0.00,VWS V14.01,2013-06-17 18:53:00,
2013-06-17 11:58:00,79.7,28.0,29.33,WNW,295,4.0,5.8,15,0.00,,SKC,0.00,VWS V14.01,2013-06-17 18:58:00,
2013-06-17 12:03:00,80.2,28.4,29.33,NE,45,4.0,5.4,15,0.00,,SKC,0.00,VWS V14.01,2013-06-17 19:03:00,
2013-06-17 12:08:00,80.8,27.2,29.33,SE,144,3.1,3.6,14,0.00,,SKC,0.00,VWS V14.01,2013-06-17 19:08:00,
2013-06-17 12:13:00,81.3,27.6,29.33,NW,324,3.1,4.0,14,0.00,,SKC,0.00,VWS V14.01,2013-06-17 19:13:00,
2013-06-17 12:18:00,81.3,27.6,29.33,NW,304,0.0,4.0,14,0.00,,SKC,0.00,VWS V14.01,2013-06-17 19:18:00,
2013-06-17 12:23:00,80.6,27.0,29.33,NNW,330,3.6,5.4,14,0.00,,SKC,0.00,VWS V14.01,2013-06-17 19:23:00,
2013-06-17 12:28:00,81.3,27.6,29.33,NNW,336,5.4,5.4,14,0.00,,SKC,0.00,VWS V14.01,2013-06-17 19:28:00,
2013-06-17 12:33:00,81.7,27.9,29.33,NNW,333,0.0,4.9,14,0.00,,SKC,0.00,VWS V14.01,2013-06-17 19:33:00,
2013-06-17 12:38:00,82.0,28.2,29.33,NNW,339,4.0,4.9,14,0.00,,SKC,0.00,VWS V14.01,2013-06-17 19:38:00,
2013-06-17 12:43:00,82.8,28.8,29.33,WSW,246,3.1,8.1,14,0.00,,SKC,0.00,VWS V14.01,2013-06-17 19:43:00,
2013-06-17 12:48:00,83.1,29.0,29.33,WSW,240,0.0,0.0,14,0.00,,SKC,0.00,VWS V14.01,2013-06-17 19:48:00,
2013-06-17 12:53:00,83.3,29.2,29.33,SW,233,3.1,3.1,14,0.00,,SKC,0.00,VWS V14.01,2013-06-17 19:53:00,
2013-06-17 12:58:00,83.1,29.0,29.33,WNW,293,4.0,4.0,14,0.00,,SKC,0.00,VWS V14.01,2013-06-17 19:58:00,
2013-06-17 13:03:00,83.5,29.3,29.33,NNW,335,0.0,0.0,14,0.00,,SKC,0.00,VWS V14.01,2013-06-17 20:03:00,
2013-06-17 13:08:00,83.5,29.3,29.33,West,272,6.3,6.3,14,0.00,,SKC,0.00,VWS V14.01,2013-06-17 20:08:00,
2013-06-17 13:13:00,83.8,29.6,29.33,West,280,5.8,5.8,14,0.00,,SKC,0.00,VWS V14.01,2013-06-17 20:13:00,
2013-06-17 13:18:00,82.9,28.9,29.33,WSW,247,2.2,2.2,14,0.00,,SKC,0.00,VWS V14.01,2013-06-17 20:18:00,
2013-06-17 13:23:00,83.1,29.0,29.33,WNW,289,8.1,8.1,14,0.00,,SKC,0.00,VWS V14.01,2013-06-17 20:23:00,
2013-06-17 13:28:00,83.5,29.3,29.33,SSW,203,10.1,10.1,14,0.00,,SKC,0.00,VWS V14.01,2013-06-17 20:28:00,
2013-06-17 13:33:00,83.7,29.5,29.33,SSW,209,6.3,6.3,14,0.00,,SKC,0.00,VWS V14.01,2013-06-17 20:33:00,
2013-06-17 13:38:00,84.4,28.2,29.33,SSW,202,10.5,10.5,13,0.00,,SKC,0.00,VWS V14.01,2013-06-17 20:38:00,
2013-06-17 13:43:00,84.0,29.8,29.33,SSW,193,10.1,11.0,14,0.00,,SKC,0.00,VWS V14.01,2013-06-17 20:43:00,
2013-06-17 13:48:00,84.0,29.8,29.33,SSW,195,3.6,9.6,14,0.00,,SKC,0.00,VWS V14.01,2013-06-17 20:48:00,
2013-06-17 13:53:00,84.6,28.4,29.33,South,175,8.1,8.7,13,0.00,,SKC,0.00,VWS V14.01,2013-06-17 20:53:00,
2013-06-17 13:58:00,84.6,28.4,29.33,SSE,168,4.9,11.0,13,0.00,,SKC,0.00,VWS V14.01,2013-06-17 20:58:00,
2013-06-17 14:03:00,84.9,28.6,29.33,SSW,197,11.0,11.0,13,0.00,,SKC,0.00,VWS V14.01,2013-06-17 21:03:00,
2013-06-17 14:08:00,85.5,29.1,29.33,SSW,209,5.8,8.7,13,0.00,,SKC,0.00,VWS V14.01,2013-06-17 21:08:00,
2013-06-17 14:13:00,84.7,28.5,29.33,SSW,212,3.6,3.6,13,0.00,,SKC,0.00,VWS V14.01,2013-06-17 21:13:00,
2013-06-17 14:18:00,84.6,28.4,29.33,SSW,202,10.1,14.1,13,0.00,,SKC,0.00,VWS V14.01,2013-06-17 21:18:00,
2013-06-17 14:23:00,84.7,28.5,29.33,SW,224,8.7,8.7,13,0.00,,SKC,0.00,VWS V14.01,2013-06-17 21:23:00,
2013-06-17 14:28:00,84.7,28.5,29.33,SSE,160,5.8,5.8,13,0.00,,SKC,0.00,VWS V14.01,2013-06-17 21:28:00,
2013-06-17 14:33:00,84.0,29.8,29.33,SE,126,7.6,7.6,14,0.00,,SKC,0.00,VWS V14.01,2013-06-17 21:33:00,
2013-06-17 14:38:00,83.8,29.6,29.33,SSW,211,7.6,8.7,14,0.00,,SKC,0.00,VWS V14.01,2013-06-17 21:38:00,
2013-06-17 14:43:00,84.2,28.1,29.33,South,178,4.9,8.1,13,0.00,,SKC,0.00,VWS V14.01,2013-06-17 21:43:00,
2013-06-17 14:48:00,84.6,28.4,29.33,SSE,157,9.6,10.1,13,0.00,,SKC,0.00,VWS V14.01,2013-06-17 21:48:00,
2013-06-17 14:53:00,84.6,28.4,29.33,South,187,8.7,8.7,13,0.00,,SKC,0.00,VWS V14.01,2013-06-17 21:53:00,
2013-06-17 14:58:00,84.7,28.5,29.33,SSE,168,8.3,8.3,13,0.00,,SKC,0.00,VWS V14.01,2013-06-17 21:58:00,
2013-06-17 15:03:00,84.9,28.6,29.33,SW,236,4.9,4.9,13,0.00,,SKC,0.00,VWS V14.01,2013-06-17 22:03:00,
2013-06-17 15:08:00,85.1,28.8,29.33,SSW,200,8.1,8.1,13,0.00,,SKC,0.00,VWS V14.01,2013-06-17 22:08:00,
2013-06-17 15:13:00,85.5,29.1,29.33,South,184,10.1,10.1,13,0.00,,SKC,0.00,VWS V14.01,2013-06-17 22:13:00,
2013-06-17 15:18:00,84.9,28.6,29.33,South,185,11.9,11.9,13,0.00,,SKC,0.00,VWS V14.01,2013-06-17 22:18:00,
2013-06-17 15:23:00,84.2,28.1,29.33,SSE,152,7.6,17.0,13,0.00,,SKC,0.00,VWS V14.01,2013-06-17 22:23:00,
2013-06-17 15:28:00,84.0,29.8,29.33,SSE,165,8.1,15.0,14,0.00,,SKC,0.00,VWS V14.01,2013-06-17 22:28:00,
2013-06-17 15:33:00,84.2,28.1,29.33,ESE,118,8.7,8.7,13,0.00,,SKC,0.00,VWS V14.01,2013-06-17 22:33:00,
2013-06-17 15:38:00,84.0,29.8,29.33,SW,218,8.1,8.1,14,0.00,,SKC,0.00,VWS V14.01,2013-06-17 22:38:00,
2013-06-17 15:43:00,83.5,29.3,29.33,West,281,2.7,6.3,14,0.00,,SKC,0.00,VWS V14.01,2013-06-17 22:43:00,
2013-06-17 15:48:00,83.8,29.6,29.33,WSW,244,8.1,14.1,14,0.00,,SKC,0.00,VWS V14.01,2013-06-17 22:48:00,
2013-06-17 15:53:00,83.7,29.5,29.33,SSW,213,6.3,6.3,14,0.00,,SKC,0.00,VWS V14.01,2013-06-17 22:53:00,
2013-06-17 15:58:00,83.7,29.5,29.33,SW,227,6.3,10.5,14,0.00,,SKC,0.00,VWS V14.01,2013-06-17 22:58:00,
2013-06-17 16:03:00,83.7,29.5,29.33,West,261,4.0,4.0,14,0.00,,SKC,0.00,VWS V14.01,2013-06-17 23:03:00,
2013-06-17 16:08:00,83.1,29.0,29.33,SSW,198,8.3,8.3,14,0.00,,SKC,0.00,VWS V14.01,2013-06-17 23:08:00,
2013-06-17 16:13:00,82.6,28.6,29.33,SSW,195,6.3,6.3,14,0.00,,SKC,0.00,VWS V14.01,2013-06-17 23:13:00,
2013-06-17 16:18:00,82.9,28.9,29.33,West,265,2.7,8.7,14,0.00,,SKC,0.00,VWS V14.01,2013-06-17 23:18:00,
2013-06-17 16:23:00,83.7,29.5,29.33,SW,231,6.3,7.6,14,0.00,,SKC,0.00,VWS V14.01,2013-06-17 23:23:00,
2013-06-17 16:28:00,82.8,28.8,29.33,WNW,283,4.9,8.3,14,0.00,,SKC,0.00,VWS V14.01,2013-06-17 23:28:00,
2013-06-17 16:33:00,82.4,28.5,29.33,SW,223,5.8,6.3,14,0.00,,SKC,0.00,VWS V14.01,2013-06-17 23:33:00,
2013-06-17 16:38:00,81.7,27.9,29.33,South,190,6.3,6.3,14,0.00,,SKC,0.00,VWS V14.01,2013-06-17 23:38:00,
2013-06-17 16:43:00,81.1,27.5,29.33,WSW,251,8.1,10.1,14,0.00,,SKC,0.00,VWS V14.01,2013-06-17 23:43:00,
2013-06-17 16:48:00,80.8,27.2,29.33,SSW,209,4.9,4.9,14,0.00,,SKC,0.00,VWS V14.01,2013-06-17 23:48:00,
2013-06-17 16:53:00,81.1,27.5,29.33,SW,230,5.8,5.8,14,0.00,,SKC,0.00,VWS V14.01,2013-06-17 23:53:00,
2013-06-17 16:58:00,80.8,27.2,29.33,SW,225,3.6,8.1,14,0.00,,SKC,0.00,VWS V14.01,2013-06-17 23:58:00,
2013-06-17 17:03:00,80.2,28.4,29.33,SW,236,2.7,4.0,15,0.00,,SKC,0.00,VWS V14.01,2013-06-18 00:03:00,
2013-06-17 17:08:00,80.8,27.2,29.33,WSW,245,7.6,7.6,14,0.00,,SKC,0.00,VWS V14.01,2013-06-18 00:08:00,
2013-06-17 17:13:00,81.1,27.5,29.33,WSW,249,4.9,8.7,14,0.00,,SKC,0.00,VWS V14.01,2013-06-18 00:13:00,
2013-06-17 17:18:00,79.7,28.0,29.33,SSW,192,3.6,8.3,15,0.00,,SKC,0.00,VWS V14.01,2013-06-18 00:18:00,
2013-06-17 17:23:00,79.3,27.7,29.33,SW,236,5.4,6.3,15,0.00,,SKC,0.00,VWS V14.01,2013-06-18 00:23:00,
2013-06-17 17:28:00,78.4,27.0,29.33,West,261,4.0,4.0,15,0.00,,SKC,0.00,VWS V14.01,2013-06-18 00:28:00,
2013-06-17 17:33:00,77.9,26.6,29.33,WSW,256,0.0,8.7,15,0.00,,SKC,0.00,VWS V14.01,2013-06-18 00:33:00,
2013-06-17 17:38:00,77.5,26.3,29.30,WSW,241,5.4,5.4,15,0.00,,SKC,0.00,VWS V14.01,2013-06-18 00:38:00,
2013-06-17 17:43:00,77.4,26.1,29.30,WSW,252,5.8,8.7,15,0.00,,SKC,0.00,VWS V14.01,2013-06-18 00:43:00,
2013-06-17 17:48:00,77.2,26.0,29.30,West,275,4.0,4.0,15,0.00,,SKC,0.00,VWS V14.01,2013-06-18 00:48:00,
2013-06-17 17:53:00,77.0,25.9,29.30,SW,227,4.0,6.3,15,0.00,,SKC,0.00,VWS V14.01,2013-06-18 00:53:00,
2013-06-17 17:58:00,76.8,25.7,29.30,SW,231,4.0,5.4,15,0.00,,SKC,0.00,VWS V14.01,2013-06-18 00:58:00,
2013-06-17 18:03:00,76.5,25.4,29.30,SW,217,5.8,5.8,15,0.00,,SKC,0.00,VWS V14.01,2013-06-18 01:03:00,
2013-06-17 18:08:00,76.3,25.3,29.30,South,171,5.4,5.4,15,0.00,,SKC,0.00,VWS V14.01,2013-06-18 01:08:00,
2013-06-17 18:13:00,75.7,24.9,29.30,SW,227,2.7,5.8,15,0.00,,SKC,0.00,VWS V14.01,2013-06-18 01:13:00,
2013-06-17 18:18:00,75.6,24.7,29.30,WSW,254,5.4,10.1,15,0.00,,SKC,0.00,VWS V14.01,2013-06-18 01:18:00,
2013-06-17 18:23:00,75.2,24.4,29.30,WSW,248,2.2,4.0,15,0.00,,SKC,0.00,VWS V14.01,2013-06-18 01:23:00,
2013-06-17 18:28:00,74.8,25.7,29.30,SSW,199,2.7,5.8,16,0.00,,SKC,0.00,VWS V14.01,2013-06-18 01:28:00,
2013-06-17 18:33:00,74.5,25.4,29.30,SW,232,8.3,8.3,16,0.00,,SKC,0.00,VWS V14.01,2013-06-18 01:33:00,
2013-06-17 18:38:00,73.9,25.0,29.30,South,171,8.1,8.1,16,0.00,,SKC,0.00,VWS V14.01,2013-06-18 01:38:00,
2013-06-17 18:43:00,73.6,24.7,29.30,WSW,248,4.0,5.8,16,0.00,,SKC,0.00,VWS V14.01,2013-06-18 01:43:00,
2013-06-17 18:48:00,73.4,24.5,29.30,WSW,244,4.0,6.3,16,0.00,,SKC,0.00,VWS V14.01,2013-06-18 01:48:00,
2013-06-17 18:53:00,73.0,24.2,29.30,SSW,196,5.8,8.7,16,0.00,,SKC,0.00,VWS V14.01,2013-06-18 01:53:00,
2013-06-17 18:58:00,72.9,24.1,29.30,SSE,165,4.0,8.7,16,0.00,,SKC,0.00,VWS V14.01,2013-06-18 01:58:00,
2013-06-17 19:03:00,72.5,23.8,29.30,SW,230,7.2,7.2,16,0.00,,SKC,0.00,VWS V14.01,2013-06-18 02:03:00,
2013-06-17 19:08:00,72.0,23.4,29.30,WSW,240,6.3,7.6,16,0.00,,SKC,0.00,VWS V14.01,2013-06-18 02:08:00,
2013-06-17 19:13:00,71.4,24.4,29.30,SSW,213,6.3,6.3,17,0.00,,SKC,0.00,VWS V14.01,2013-06-18 02:13:00,
2013-06-17 19:18:00,71.1,24.1,29.30,SSW,211,5.8,8.7,17,0.00,,SKC,0.00,VWS V14.01,2013-06-18 02:18:00,
2013-06-17 19:23:00,70.7,23.8,29.30,South,176,4.0,7.2,17,0.00,,SKC,0.00,VWS V14.01,2013-06-18 02:23:00,
2013-06-17 19:28:00,70.3,23.5,29.30,SSW,199,7.2,10.5,17,0.00,,SKC,0.00,VWS V14.01,2013-06-18 02:28:00,
2013-06-17 19:33:00,70.2,23.4,29.30,SSW,198,3.1,5.8,17,0.00,,SKC,0.00,VWS V14.01,2013-06-18 02:33:00,
2013-06-17 19:38:00,69.8,23.1,29.30,SE,143,3.6,8.1,17,0.00,,SKC,0.00,VWS V14.01,2013-06-18 02:38:00,
2013-06-17 19:43:00,69.4,22.8,29.30,SSW,210,7.6,8.1,17,0.00,,SKC,0.00,VWS V14.01,2013-06-18 02:43:00,
2013-06-17 19:48:00,69.1,22.5,29.30,South,169,5.4,6.7,17,0.00,,SKC,0.00,VWS V14.01,2013-06-18 02:48:00,
2013-06-17 19:53:00,69.1,22.5,29.30,South,172,8.1,8.3,17,0.00,,SKC,0.00,VWS V14.01,2013-06-18 02:53:00,
2013-06-17 19:58:00,68.4,21.9,29.30,South,178,5.8,7.6,17,0.00,,SKC,0.00,VWS V14.01,2013-06-18 02:58:00,
2013-06-17 20:00:00,66.9,20.7,29.30,SSE,147,7.6,10.5,17,0.00,,SKC,0.00,VWS V14.01,2013-06-18 03:00:00,
2013-06-17 20:01:00,66.9,20.7,29.30,SSE,148,8.7,10.5,17,0.00,,SKC,0.00,VWS V14.01,2013-06-18 03:01:00,
2013-06-17 20:02:00,66.9,20.7,29.30,SSE,149,8.1,8.7,17,0.00,,SKC,0.00,VWS V14.01,2013-06-18 03:02:00,
2013-06-17 20:03:00,67.8,21.5,29.30,SSE,168,5.4,7.6,17,0.00,,SKC,0.00,VWS V14.01,2013-06-18 03:03:00,
2013-06-17 20:04:00,66.7,20.6,29.30,South,169,10.1,10.1,17,0.00,,SKC,0.00,VWS V14.01,2013-06-18 03:04:00,
2013-06-17 20:05:00,66.7,20.6,29.30,SSE,160,8.3,12.8,17,0.00,,SKC,0.00,VWS V14.01,2013-06-18 03:05:00,
2013-06-17 20:08:00,68.0,21.6,29.33,South,169,4.0,6.3,17,0.00,,SKC,0.00,VWS V14.01,2013-06-18 03:08:00,
2013-06-17 20:13:00,67.8,21.5,29.33,SE,144,5.8,5.8,17,0.00,,SKC,0.00,VWS V14.01,2013-06-18 03:13:00,
2013-06-17 20:18:00,68.0,21.6,29.33,SSW,194,8.7,9.6,17,0.00,,SKC,0.00,VWS V14.01,2013-06-18 03:18:00,
2013-06-17 20:23:00,66.7,20.6,29.30,SSE,161,3.1,5.8,17,0.00,,SKC,0.00,VWS V14.01,2013-06-18 03:23:00,
2013-06-17 20:28:00,66.6,20.4,29.30,SE,145,5.8,7.6,17,0.00,,SKC,0.00,VWS V14.01,2013-06-18 03:28:00,
2013-06-17 20:33:00,66.9,20.7,29.30,SSE,153,7.2,12.8,17,0.00,,SKC,0.00,VWS V14.01,2013-06-18 03:33:00,
2013-06-17 20:38:00,67.8,21.5,29.30,SE,137,11.4,11.4,17,0.00,,SKC,0.00,VWS V14.01,2013-06-18 03:38:00,
2013-06-17 20:43:00,68.0,21.6,29.30,South,189,11.0,11.0,17,0.00,,SKC,0.00,VWS V14.01,2013-06-18 03:43:00,
2013-06-17 20:48:00,67.5,21.2,29.30,SSE,148,6.3,6.3,17,0.00,,SKC,0.00,VWS V14.01,2013-06-18 03:48:00,
2013-06-17 20:53:00,67.5,21.2,29.30,SE,140,7.6,12.3,17,0.00,,SKC,0.00,VWS V14.01,2013-06-18 03:53:00,
2013-06-17 20:58:00,67.1,20.9,29.30,South,178,6.3,11.0,17,0.00,,SKC,0.00,VWS V14.01,2013-06-18 03:58:00,
2013-06-17 21:03:00,66.7,20.6,29.30,SE,131,10.5,11.0,17,0.00,,SKC,0.00,VWS V14.01,2013-06-18 04:03:00,
2013-06-17 21:08:00,66.7,20.6,29.30,SSE,156,8.3,11.9,17,0.00,,SKC,0.00,VWS V14.01,2013-06-18 04:08:00,
2013-06-17 21:13:00,66.9,20.7,29.30,South,181,10.1,11.0,17,0.00,,SKC,0.00,VWS V14.01,2013-06-18 04:13:00,
2013-06-17 21:18:00,66.7,20.6,29.30,SE,135,10.5,13.2,17,0.00,,SKC,0.00,VWS V14.01,2013-06-18 04:18:00,
2013-06-17 21:23:00,66.6,20.4,29.30,SE,136,8.1,10.1,17,0.00,,SKC,0.00,VWS V14.01,2013-06-18 04:23:00,
2013-06-17 21:28:00,66.4,20.3,29.30,SSE,162,12.8,12.8,17,0.00,,SKC,0.00,VWS V14.01,2013-06-18 04:28:00,
2013-06-17 21:33:00,66.4,20.3,29.30,SSE,150,7.6,8.3,17,0.00,,SKC,0.00,VWS V14.01,2013-06-18 04:33:00,
2013-06-17 21:38:00,66.4,20.3,29.30,SSE,148,6.3,8.3,17,0.00,,SKC,0.00,VWS V14.01,2013-06-18 04:38:00,
2013-06-17 21:43:00,66.2,20.1,29.30,SE,140,10.1,10.1,17,0.00,,SKC,0.00,VWS V14.01,2013-06-18 04:43:00,
2013-06-17 21:48:00,66.0,21.3,29.30,SSE,147,7.6,11.0,18,0.00,,SKC,0.00,VWS V14.01,2013-06-18 04:48:00,
2013-06-17 21:53:00,65.8,21.2,29.30,SE,142,13.2,13.2,18,0.00,,SKC,0.00,VWS V14.01,2013-06-18 04:53:00,
2013-06-17 21:58:00,65.8,21.2,29.30,SSE,150,8.1,10.5,18,0.00,,SKC,0.00,VWS V14.01,2013-06-18 04:58:00,
2013-06-17 22:03:00,65.7,21.0,29.30,SSE,151,12.8,12.8,18,0.00,,SKC,0.00,VWS V14.01,2013-06-18 05:03:00,
2013-06-17 22:08:00,65.5,20.9,29.30,SE,138,14.1,14.1,18,0.00,,SKC,0.00,VWS V14.01,2013-06-18 05:08:00,
2013-06-17 22:13:00,65.3,20.7,29.30,SE,146,8.3,8.3,18,0.00,,SKC,0.00,VWS V14.01,2013-06-18 05:13:00,
2013-06-17 22:18:00,65.1,20.6,29.30,SSE,151,8.7,8.7,18,0.00,,SKC,0.00,VWS V14.01,2013-06-18 05:18:00,
2013-06-17 22:23:00,65.1,20.6,29.30,SE,140,9.6,11.0,18,0.00,,SKC,0.00,VWS V14.01,2013-06-18 05:23:00,
2013-06-17 22:28:00,65.1,20.6,29.30,SE,140,8.3,11.0,18,0.00,,SKC,0.00,VWS V14.01,2013-06-18 05:28:00,
2013-06-17 22:33:00,64.9,20.4,29.30,ESE,112,10.1,10.1,18,0.00,,SKC,0.00,VWS V14.01,2013-06-18 05:33:00,
2013-06-17 22:38:00,64.4,20.0,29.30,SSE,150,11.0,12.8,18,0.00,,SKC,0.00,VWS V14.01,2013-06-18 05:38:00,
2013-06-17 22:43:00,64.0,19.7,29.30,SE,142,8.3,8.7,18,0.00,,SKC,0.00,VWS V14.01,2013-06-18 05:43:00,
2013-06-17 22:48:00,63.7,19.4,29.30,SSE,155,11.0,11.0,18,0.00,,SKC,0.00,VWS V14.01,2013-06-18 05:48:00,
2013-06-17 22:53:00,63.3,19.1,29.30,SE,130,6.3,8.1,18,0.00,,SKC,0.00,VWS V14.01,2013-06-18 05:53:00,
2013-06-17 22:58:00,63.1,19.0,29.30,SE,135,11.0,11.0,18,0.00,,SKC,0.00,VWS V14.01,2013-06-18 05:58:00,
2013-06-17 23:03:00,63.0,18.8,29.30,SSE,153,8.1,8.3,18,0.00,,SKC,0.00,VWS V14.01,2013-06-18 06:03:00,
2013-06-17 23:08:00,63.0,18.8,29.30,SE,130,10.5,10.5,18,0.00,,SKC,0.00,VWS V14.01,2013-06-18 06:08:00,
2013-06-17 23:13:00,63.5,19.3,29.30,SSE,151,10.1,10.1,18,0.00,,SKC,0.00,VWS V14.01,2013-06-18 06:13:00,
2013-06-17 23:18:00,63.9,19.6,29.30,SSE,156,10.5,10.5,18,0.00,,SKC,0.00,VWS V14.01,2013-06-18 06:18:00,
2013-06-17 23:23:00,64.2,19.9,29.27,SSE,152,8.1,8.1,18,0.00,,SKC,0.00,VWS V14.01,2013-06-18 06:23:00,
2013-06-17 23:28:00,64.2,19.9,29.27,SSE,158,7.6,8.7,18,0.00,,SKC,0.00,VWS V14.01,2013-06-18 06:28:00,
2013-06-17 23:33:00,64.0,19.7,29.27,SSE,166,5.8,5.8,18,0.00,,SKC,0.00,VWS V14.01,2013-06-18 06:33:00,
2013-06-17 23:38:00,63.7,19.4,29.30,SSE,165,4.0,5.4,18,0.00,,SKC,0.00,VWS V14.01,2013-06-18 06:38:00,
2013-06-17 23:43:00,63.1,19.0,29.30,South,171,5.8,5.8,18,0.00,,SKC,0.00,VWS V14.01,2013-06-18 06:43:00,
2013-06-17 23:48:00,62.4,19.6,29.30,SSW,196,8.7,8.7,19,0.00,,SKC,0.00,VWS V14.01,2013-06-18 06:48:00,
2013-06-17 23:53:00,61.0,18.5,29.27,SSW,211,4.9,4.9,19,0.00,,SKC,0.00,VWS V14.01,2013-06-18 06:53:00,
2013-06-17 23:58:00,59.5,17.3,29.27,South,188,4.0,4.0,19,0.00,,SKC,0.00,VWS V14.01,2013-06-18 06:58:00,